Theta_e
318 318 319 320 324 326 324 323 320 322 323 316 317 318 321 324 326 331 334 335 339 338 340 342 342 342 345 347 347 345 345 348 348 345 344 344 340 341 342 340 342 343 344 343 343 343 341 340 341 341 340 339 337 336 337 337 338 338 338 338 338 338 338 337 337 338 338 339 339 340 340 340 340 340 340 340 339 340 340 340 341 340 341 340 339 339 339 339 335 335 339 338 338 336 333 332 329
319 320 321 323 326 324 322 322 319 318 318 314 316 318 320 326 329 332 335 337 340 338 340 340 340 342 342 343 342 344 344 344 343 344 342 341 340 340 340 340 342 343 344 343 342 342 340 340 340 340 340 339 337 337 337 337 337 338 338 338 337 337 337 336 337 337 337 337 338 339 339 339 339 339 340 339 340 340 340 340 340 339 341 341 340 339 338 338 335 334 338 338 338 337 330 328 329
319 322 324 323 324 322 322 322 319 314 315 313 315 322 323 328 332 335 336 337 339 337 341 339 340 342 340 343 343 344 343 341 340 340 340 340 339 338 340 342 342 342 343 342 342 342 340 341 340 340 339 338 336 336 337 338 338 337 337 338 337 337 337 336 336 336 337 336 337 338 338 339 339 339 339 339 338 338 338 339 340 339 339 339 339 338 337 336 336 335 336 337 337 338 331 326 330
318 323 326 324 321 321 321 321 320 315 313 312 314 325 328 331 335 337 336 336 336 337 341 340 342 341 341 344 342 342 341 340 339 340 340 339 338 339 342 341 341 342 342 342 341 340 340 340 339 338 337 334 333 335 336 337 338 337 337 337 337 337 337 337 337 337 337 337 337 338 338 338 338 339 339 338 338 337 337 338 340 340 339 338 339 337 336 335 336 336 337 338 338 339 333 327 329
316 322 325 324 322 321 321 320 321 316 314 314 315 326 332 333 337 338 336 336 335 338 340 339 343 341 341 341 341 343 341 340 339 339 339 338 339 340 341 341 341 341 341 341 340 339 338 338 338 338 336 333 334 335 336 336 336 337 337 337 337 337 337 337 337 337 337 338 338 338 338 337 338 338 339 339 338 338 337 337 338 339 338 338 338 336 335 335 335 337 337 337 338 339 337 331 328
316 320 322 322 323 322 321 318 316 315 318 319 320 329 335 334 338 337 336 336 336 339 339 341 343 342 342 339 339 341 340 340 339 339 339 339 340 340 340 341 341 341 341 341 339 338 338 339 340 338 336 335 336 336 335 335 335 337 337 337 337 337 337 337 337 337 337 338 338 338 337 337 337 337 338 338 337 337 337 336 335 337 337 336 337 336 335 335 335 335 337 336 336 338 338 334 331
317 319 319 320 321 322 320 316 315 315 320 325 328 334 338 337 339 336 336 337 337 338 338 340 339 341 342 339 339 339 339 339 339 339 338 339 339 340 340 340 340 341 341 341 339 339 339 339 339 337 336 336 336 335 335 334 334 335 336 337 337 336 336 336 336 336 336 337 337 337 337 336 337 337 337 336 335 335 336 335 334 335 335 335 336 336 334 335 335 334 337 337 336 337 336 336 334
318 318 318 319 319 320 319 317 318 318 323 331 332 335 338 337 339 338 340 339 339 339 339 339 336 341 341 339 341 339 338 339 339 339 339 339 339 340 339 339 340 341 340 341 340 339 339 338 337 337 336 335 335 335 335 334 334 334 335 336 335 334 334 334 335 335 335 335 335 335 335 335 335 335 335 334 334 334 333 334 334 334 335 335 336 336 334 335 336 335 336 337 336 334 334 336 335
318 318 318 319 318 318 317 316 318 320 325 331 331 334 336 335 337 340 341 341 340 338 339 338 336 341 341 339 340 338 338 339 339 339 339 338 340 340 339 339 339 340 341 340 339 337 337 337 336 335 335 334 334 334 334 334 334 334 335 334 334 334 334 334 335 335 335 334 335 334 334 334 334 334 334 333 333 333 333 333 334 335 335 335 335 335 334 334 336 334 333 334 334 330 332 336 335
318 318 318 319 319 315 313 315 317 320 324 329 331 333 334 335 337 340 341 340 338 338 339 337 337 340 340 339 339 338 338 338 339 339 339 339 340 339 339 339 339 339 340 340 338 336 336 335 334 334 334 333 332 332 332 332 333 333 333 333 333 333 333 334 335 335 335 335 335 334 334 333 333 332 332 332 332 333 333 333 334 335 335 335 336 335 333 333 333 332 330 332 332 329 332 335 335
318 318 319 318 316 312 312 315 316 321 327 329 331 332 334 335 337 339 339 338 336 337 337 336 339 339 338 339 338 337 338 339 339 338 338 339 339 339 338 338 339 339 339 339 338 337 335 334 334 333 332 332 332 332 332 332 332 332 332 332 332 333 333 334 334 334 334 334 334 334 333 332 332 331 332 332 332 332 332 334 336 335 334 335 336 335 332 331 331 330 330 330 329 330 334 335 335
317 318 320 317 315 314 314 315 322 330 332 332 335 336 337 336 338 338 337 337 337 336 334 335 339 338 339 340 338 337 339 339 338 337 337 338 338 338 337 336 337 337 338 337 336 336 335 333 334 333 332 333 332 333 333 332 332 332 332 332 332 332 332 333 333 333 333 333 333 333 333 332 332 331 332 332 332 332 332 333 335 334 334 335 336 335 333 331 331 331 330 329 327 330 334 334 334
317 319 320 317 317 318 315 319 329 333 333 337 338 337 338 337 336 336 336 337 338 337 334 334 335 337 340 339 338 337 339 339 337 336 336 337 337 336 337 336 336 336 337 336 335 335 335 334 335 334 333 333 332 333 333 333 333 332 332 331 331 331 331 331 331 331 332 332 332 332 332 332 332 332 332 332 332 332 332 332 332 332 333 334 335 335 334 333 331 331 331 330 329 331 333 333 333
318 320 319 317 318 319 319 323 329 328 329 336 337 336 338 336 335 334 336 337 338 336 334 333 333 337 340 339 338 337 338 338 337 336 336 336 336 336 336 336 335 336 336 335 335 336 336 335 335 334 334 334 333 333 333 333 332 331 330 330 331 331 330 330 330 330 330 330 331 331 334 335 334 334 334 333 333 332 333 333 331 330 331 332 333 333 332 332 332 332 332 331 330 330 333 335 333
318 320 320 319 317 318 323 327 329 325 330 337 337 336 337 335 333 335 336 336 337 334 334 335 334 337 339 339 339 337 337 338 338 338 337 335 336 336 336 335 335 336 336 335 336 336 335 336 336 335 335 335 333 332 332 331 331 331 330 330 330 330 331 332 333 334 332 330 331 334 336 337 337 337 336 336 336 334 334 334 332 330 331 331 331 332 330 331 330 330 331 331 331 331 333 334 333
319 319 319 319 315 320 326 328 329 328 333 337 336 335 337 335 334 335 335 334 336 333 334 336 336 338 338 338 338 337 337 338 338 338 337 336 336 335 335 334 335 336 336 336 336 336 336 336 336 335 336 336 335 334 334 334 333 334 333 333 332 333 334 335 336 337 337 334 335 337 338 338 338 338 337 337 337 335 334 332 331 331 330 331 331 331 331 331 330 327 325 327 331 331 331 332 331
319 319 320 319 318 325 329 328 329 330 334 336 335 336 336 335 335 335 334 333 336 336 335 336 336 337 337 338 337 337 338 338 338 338 338 337 335 334 334 334 334 335 335 336 336 337 336 336 336 336 336 336 337 337 337 337 337 337 337 336 336 335 336 336 336 337 339 338 338 339 338 338 338 337 335 336 336 333 333 331 329 330 329 330 330 330 331 331 329 325 321 320 325 327 328 328 328
320 321 324 323 325 330 331 331 331 331 336 336 335 335 334 335 335 335 335 335 336 336 336 335 335 336 337 338 338 338 338 338 338 337 338 337 336 335 335 333 333 335 334 335 335 335 336 335 335 336 336 336 336 336 336 336 337 338 337 337 337 335 335 335 335 336 338 338 338 338 338 338 338 337 336 336 335 334 335 333 331 331 331 331 331 331 331 332 330 329 327 320 319 320 322 325 328
320 323 325 326 330 332 331 333 331 331 336 336 334 333 333 334 334 333 337 337 336 336 337 336 336 337 336 337 338 338 338 338 337 337 338 337 336 336 335 333 332 333 333 334 334 333 335 335 335 336 335 335 334 334 335 335 335 336 335 336 335 334 333 333 334 335 336 337 337 337 338 338 337 337 336 337 336 335 336 335 334 334 334 334 333 333 334 335 334 334 334 327 322 322 326 329 333
322 324 326 328 331 330 330 333 332 332 334 334 333 332 333 334 332 332 336 337 336 336 337 336 337 337 336 336 337 337 337 337 337 338 338 337 337 336 334 332 332 332 332 333 333 333 335 334 335 336 335 335 334 335 336 335 335 336 335 334 333 332 332 333 333 334 335 335 336 337 337 336 335 335 335 336 335 334 335 335 335 336 336 335 335 335 335 336 335 334 335 333 329 330 333 334 333
324 326 328 330 331 330 331 332 331 333 332 332 333 333 334 335 334 333 335 336 336 336 336 335 336 336 335 335 336 336 336 336 337 337 337 337 337 335 335 333 332 333 334 334 333 335 337 336 336 338 338 337 335 335 336 336 335 336 335 334 333 333 333 333 333 333 334 334 334 335 336 335 335 335 335 334 334 334 334 334 335 335 335 335 336 335 334 335 336 333 334 335 333 334 335 333 331
327 327 327 329 330 330 331 329 330 332 331 331 333 334 333 335 335 333 334 336 335 334 334 334 335 334 334 334 335 335 335 336 336 336 336 337 336 335 336 335 333 334 337 336 336 337 338 337 338 338 338 338 337 336 336 336 335 336 336 335 335 334 334 334 333 333 334 334 334 332 332 334 334 335 335 334 334 335 335 335 334 334 334 334 335 334 333 334 334 333 334 334 333 333 333 333 333
329 329 328 328 329 330 330 329 330 331 331 332 334 333 333 335 336 333 334 336 334 332 332 333 334 333 333 334 334 334 335 336 336 336 336 337 337 337 337 337 335 336 338 337 337 337 337 337 337 338 337 337 336 335 336 337 336 336 336 335 336 334 334 334 335 334 334 335 335 333 332 332 333 333 334 334 334 335 335 335 334 334 334 334 335 334 334 334 334 334 334 334 334 333 333 333 334
330 331 330 330 329 330 330 329 331 331 332 333 333 332 334 336 335 334 335 335 334 333 332 333 334 333 333 334 334 335 336 337 336 335 335 336 337 337 337 337 336 336 337 337 337 337 337 337 336 337 337 336 335 335 335 336 335 335 335 335 335 335 334 334 334 333 334 335 335 335 335 334 333 332 332 332 333 333 333 333 334 335 334 334 334 334 334 334 334 333 333 333 333 333 333 334 334
331 331 331 330 331 331 330 330 332 332 332 332 333 333 334 335 334 334 334 334 334 333 333 334 334 333 333 334 334 335 336 336 336 335 335 337 337 336 335 336 335 335 334 336 337 336 336 336 335 336 337 336 335 335 335 335 334 334 335 336 336 335 334 334 333 332 334 335 334 335 336 335 335 334 332 332 332 332 332 331 332 333 333 334 334 333 334 333 333 332 332 333 333 332 332 333 333
330 332 331 331 331 331 332 332 332 333 332 333 334 333 333 333 333 334 333 333 333 333 333 334 334 333 332 333 333 334 334 335 335 335 336 336 337 336 336 336 336 334 333 334 335 336 336 336 336 336 337 336 335 335 335 335 335 335 335 335 336 335 334 334 334 333 333 334 334 335 336 335 335 335 334 334 333 332 332 331 331 332 332 332 333 332 332 333 333 332 332 332 333 333 332 332 332
329 332 332 331 331 332 332 333 332 332 333 333 334 333 333 332 333 334 332 332 333 333 333 334 334 332 331 332 332 334 335 336 336 336 336 336 336 337 336 335 335 334 334 334 335 336 336 336 336 335 335 335 334 335 335 335 335 334 334 334 335 335 334 333 334 333 333 334 334 334 335 334 335 335 334 334 333 333 333 332 332 332 332 332 333 332 332 332 332 332 331 332 332 332 331 331 332
329 332 332 331 331 330 331 333 333 333 333 332 332 333 333 332 334 334 332 331 333 335 335 335 335 331 331 332 331 333 334 335 336 336 336 335 336 336 335 333 333 334 334 335 335 335 335 334 334 334 334 334 333 334 333 333 333 333 333 334 334 334 333 333 333 333 333 334 333 333 333 333 333 333 333 333 333 333 333 332 332 332 332 332 332 332 332 332 332 331 331 331 331 331 330 329 330
331 332 332 331 331 331 330 332 332 333 334 332 330 333 335 334 334 333 332 332 332 335 335 334 334 332 331 332 332 332 333 335 335 334 335 335 334 335 334 333 333 333 333 334 334 334 333 333 333 333 333 333 333 333 332 331 330 331 331 331 331 331 332 332 332 332 331 332 332 331 331 331 331 332 332 333 332 332 332 332 332 332 332 332 332 331 332 332 332 332 332 332 332 332 330 329 329
332 331 334 333 332 332 331 330 331 332 332 330 331 335 336 335 333 333 331 331 331 333 334 332 333 333 332 332 331 332 332 334 334 333 334 333 333 333 333 333 333 332 332 333 333 333 332 332 332 332 331 331 331 331 331 330 329 329 329 329 329 329 329 329 329 330 330 330 330 329 330 329 329 330 330 331 331 331 331 331 331 331 331 332 332 331 332 332 331 332 332 332 332 332 331 330 330
331 331 335 336 334 333 330 330 331 330 330 329 331 334 336 334 333 333 332 332 332 332 332 332 333 332 332 331 331 332 333 334 333 332 333 332 332 332 332 332 332 331 331 331 332 332 331 331 331 331 330 329 329 330 330 329 329 328 328 328 327 327 327 328 328 327 327 327 327 327 327 327 327 328 328 329 328 329 329 329 329 329 330 330 330 330 330 330 330 331 331 331 331 331 330 329 329
331 332 334 335 334 334 331 330 330 330 330 330 331 333 333 333 332 333 333 333 333 331 331 333 333 333 333 332 332 332 333 333 332 331 331 331 331 331 331 331 331 331 331 330 330 330 330 330 329 328 328 327 327 327 327 327 327 326 326 326 324 324 325 325 325 324 324 324 324 323 324 324 324 325 326 326 326 327 327 327 326 327 328 328 328 328 328 329 329 329 329 329 329 329 329 327 327
330 333 335 333 333 334 333 331 329 329 330 330 331 332 333 332 332 333 334 334 333 332 332 333 333 334 333 332 332 333 332 332 332 330 330 329 330 330 330 330 330 330 329 329 329 329 329 328 327 327 326 326 326 325 324 324 324 324 323 323 322 322 322 322 322 322 321 322 321 321 322 322 322 323 323 323 324 325 325 325 324 324 325 325 326 325 326 327 326 327 326 325 327 326 325 326 326
332 334 334 332 331 333 333 331 329 329 330 331 331 331 332 331 331 333 334 334 333 331 330 333 333 333 333 332 332 332 331 330 330 329 329 328 328 329 329 329 329 329 328 327 327 326 326 325 324 324 324 324 324 324 323 322 322 322 322 322 322 321 321 321 321 321 320 320 320 320 321 321 321 322 322 322 322 323 323 323 322 322 323 322 323 323 323 323 323 325 324 323 325 324 322 324 326
333 334 331 331 331 330 331 331 329 328 329 332 331 331 333 331 331 332 332 331 331 330 330 331 331 331 332 332 332 331 329 329 329 328 328 327 327 328 328 327 327 327 326 325 324 323 322 321 321 321 322 322 321 321 323 323 321 321 322 322 322 322 322 321 321 321 319 319 320 319 320 321 321 321 322 321 321 322 322 322 322 321 321 321 322 321 321 320 320 322 323 322 323 323 321 323 323
331 333 330 329 329 328 330 330 328 329 330 331 331 331 332 331 331 332 331 330 330 330 330 330 331 331 332 332 330 329 329 329 328 328 327 326 326 326 326 326 325 324 323 322 321 321 321 321 321 320 321 321 322 322 323 323 322 322 321 321 320 320 321 321 320 320 320 319 319 319 319 319 319 320 321 321 319 320 321 321 322 321 320 320 321 321 320 319 318 320 322 321 322 321 321 321 321
329 331 330 328 328 328 330 330 328 329 330 330 331 331 331 331 331 332 330 330 331 331 331 332 331 332 333 331 329 329 328 328 327 327 326 325 325 326 325 324 323 321 320 321 321 321 321 320 320 320 321 321 322 322 322 322 322 321 321 320 320 319 320 320 319 319 320 319 318 319 318 318 318 318 319 320 319 319 319 320 320 321 320 319 319 320 319 318 318 319 321 320 321 321 321 321 320
330 328 329 332 333 330 330 331 328 329 330 330 330 329 331 331 330 331 330 330 331 331 332 332 332 333 333 331 329 328 328 327 327 327 326 325 325 325 324 322 321 320 320 321 321 320 320 320 320 321 322 322 322 322 322 321 321 320 320 319 318 319 319 319 319 319 319 319 318 318 317 317 317 317 318 318 318 317 317 318 318 319 320 318 319 319 318 318 317 319 319 318 319 320 321 320 319
328 327 328 331 333 332 332 330 328 329 330 330 331 329 330 331 330 331 330 330 331 332 332 332 332 333 332 331 330 328 328 328 327 327 326 324 323 323 322 321 320 320 321 321 321 320 320 320 320 321 321 320 320 320 321 321 320 320 319 318 317 318 318 318 318 318 318 318 317 317 317 317 316 317 317 317 317 316 316 317 316 318 318 317 318 318 317 317 317 318 318 317 319 319 319 319 319
325 326 327 327 330 334 334 332 330 330 329 330 331 330 331 331 330 330 330 330 332 333 333 333 331 331 331 331 330 329 329 328 327 327 326 324 323 322 321 321 320 320 321 321 320 320 320 320 320 321 321 320 320 319 319 319 319 319 319 319 318 318 317 317 317 317 317 317 317 316 316 316 316 316 316 316 316 316 316 317 316 316 316 315 317 317 316 317 317 317 317 316 318 318 318 318 318
324 327 327 327 329 333 333 331 331 331 330 331 330 331 334 334 332 332 331 331 333 333 333 333 332 331 331 330 330 330 329 328 328 327 327 325 323 322 321 322 322 320 320 320 320 319 319 319 319 320 320 319 319 319 319 318 318 318 318 318 318 318 317 316 316 317 316 316 316 316 316 316 316 316 316 316 316 315 315 317 317 316 315 314 316 317 315 316 316 316 316 315 316 318 317 318 318
323 327 327 327 328 331 330 329 335 336 334 332 329 332 335 334 331 332 332 333 333 332 332 332 331 330 330 331 330 330 328 328 328 327 326 324 322 322 322 322 321 320 320 320 319 319 319 318 318 319 319 318 318 318 318 318 318 318 318 317 318 317 317 316 316 316 315 315 316 316 316 316 315 315 315 314 315 315 315 316 316 316 315 313 315 316 315 316 316 315 316 315 315 316 316 317 317
321 325 327 327 327 328 328 330 337 340 337 334 328 332 334 332 330 333 332 333 333 332 332 331 330 330 329 330 330 330 329 327 327 327 326 324 322 322 322 321 321 321 320 320 319 319 319 318 318 319 319 318 318 318 318 318 317 317 317 317 317 317 317 316 315 314 314 314 315 316 315 314 313 312 313 314 314 315 315 315 315 315 315 313 314 315 314 315 315 315 315 315 315 315 315 316 316
321 325 326 326 327 327 328 330 333 335 334 334 328 330 335 333 330 333 331 331 333 332 333 332 330 330 329 329 330 330 329 327 327 326 326 325 323 323 322 322 321 321 320 319 319 319 318 318 318 318 319 318 317 317 317 317 317 317 317 317 317 316 316 316 315 315 314 313 314 315 315 314 313 312 313 315 314 314 315 315 314 315 315 314 314 314 314 314 314 315 315 314 314 315 314 315 315
322 325 325 326 327 328 327 327 327 325 329 336 334 328 334 335 330 332 331 330 333 333 332 332 330 330 330 329 329 329 328 327 326 326 327 326 324 323 322 321 321 321 321 320 319 318 318 319 319 319 318 318 317 317 317 317 316 317 316 317 317 316 316 315 315 315 315 314 314 315 315 315 315 314 314 315 315 315 315 315 315 315 315 314 314 314 313 314 314 314 314 314 314 314 314 315 314
325 325 325 326 326 327 328 327 326 325 330 338 338 328 330 334 331 331 332 330 332 333 331 331 331 330 330 330 330 329 327 326 326 326 327 326 323 323 322 321 322 322 321 320 319 319 319 319 319 319 318 318 317 317 316 316 316 316 316 316 316 316 316 315 315 315 315 314 314 315 315 315 315 315 315 315 315 315 315 316 315 315 315 314 314 314 313 314 314 313 314 314 314 314 313 314 314
324 324 324 325 326 325 328 328 328 331 331 333 333 327 326 332 332 331 332 331 331 332 331 331 331 330 330 330 330 329 328 326 325 326 326 325 323 322 321 322 322 321 320 320 319 319 319 320 319 319 319 318 318 317 317 317 316 316 316 316 316 316 315 316 315 314 314 314 315 314 314 314 314 315 315 315 315 314 314 314 314 315 314 313 313 313 313 314 313 312 314 314 314 313 313 314 314
323 326 324 323 325 324 326 329 331 332 329 325 326 325 324 328 331 331 331 331 330 331 331 330 331 330 330 330 329 329 328 326 325 325 325 324 322 322 322 322 321 321 320 320 319 319 320 320 320 319 319 318 318 317 317 317 316 316 316 316 316 315 315 315 314 314 314 314 314 314 314 314 314 314 314 314 313 314 314 314 314 314 313 313 313 313 314 315 314 313 314 314 314 313 314 314 314
325 329 326 322 323 323 326 332 333 328 323 321 323 326 325 326 328 330 330 329 329 330 330 330 330 330 330 330 329 328 327 326 325 325 324 323 323 322 322 321 321 321 321 320 320 320 320 320 320 320 319 319 318 318 318 317 316 316 316 316 316 315 315 314 313 313 314 315 315 315 315 314 314 313 314 313 313 314 314 314 314 314 313 313 314 314 314 315 314 313 314 314 314 313 314 314 313
326 328 325 322 324 324 325 328 329 327 324 323 321 323 325 324 325 327 329 328 328 329 329 329 329 330 330 329 328 328 328 327 325 324 324 323 323 323 322 322 321 321 321 321 320 320 320 320 320 319 319 319 319 319 318 318 317 316 316 316 315 315 315 314 314 313 314 315 315 315 314 314 314 314 314 313 314 314 314 314 314 314 313 314 314 314 314 314 314 313 313 313 313 313 313 313 312
327 328 327 323 323 325 323 322 326 328 326 323 319 322 325 325 326 329 329 328 328 329 329 329 330 330 330 329 328 328 328 327 326 324 324 324 323 323 323 322 321 321 321 321 321 321 320 320 320 319 319 320 319 319 319 319 318 317 316 316 316 315 315 315 314 314 315 315 314 314 314 314 314 314 314 314 314 314 314 313 313 314 314 314 314 314 314 313 313 312 312 312 312 312 313 312 312
328 327 326 321 321 324 321 320 324 327 325 321 318 321 326 326 326 328 328 328 328 328 329 330 331 330 329 329 329 329 327 327 326 325 325 325 323 322 323 322 321 321 320 321 321 321 321 321 320 320 319 320 320 319 319 319 318 317 317 317 316 315 315 315 314 314 314 314 314 313 314 314 314 314 314 314 313 314 313 313 313 313 313 313 313 313 313 312 312 312 312 312 312 312 312 311 311
327 324 323 323 323 325 322 319 322 323 322 322 320 322 326 326 328 329 328 327 327 328 329 329 331 330 329 330 329 329 328 327 327 325 324 324 323 322 322 322 321 321 320 320 321 321 321 321 321 320 320 320 320 320 320 319 319 318 318 317 316 315 315 315 314 313 314 314 313 313 313 313 313 314 314 313 313 313 313 312 312 312 312 312 312 312 312 312 312 311 311 311 311 311 311 311 311
324 321 323 325 323 324 323 321 323 323 320 320 324 327 327 328 331 331 328 328 328 328 328 329 331 331 330 331 330 329 329 328 326 325 324 324 323 322 322 321 321 320 320 320 321 321 321 321 321 320 320 320 320 320 320 319 320 319 319 317 316 316 315 314 314 313 313 313 313 313 313 313 313 313 313 313 313 313 312 311 311 311 312 311 311 312 312 311 311 311 311 311 311 311 311 311 310
323 321 322 324 321 323 325 322 324 326 321 320 325 326 326 329 331 329 326 329 329 328 329 329 330 330 330 331 331 329 329 328 326 325 324 323 323 323 322 321 320 320 320 321 321 321 321 320 320 320 320 321 321 321 321 320 320 320 319 318 317 316 315 314 314 314 313 314 313 313 313 312 312 312 313 313 312 312 312 311 311 311 311 311 311 311 311 311 311 311 311 311 311 311 311 311 311
323 322 323 323 322 325 325 321 321 322 319 320 324 323 325 330 331 328 326 328 329 329 330 331 330 330 329 330 331 329 328 329 327 325 324 324 323 322 322 321 320 319 319 321 321 321 321 320 320 320 321 321 321 321 321 321 320 320 319 318 317 316 316 315 314 314 314 314 313 313 313 312 312 312 312 312 312 312 311 311 311 312 311 311 311 311 311 311 311 311 311 311 311 311 311 311 311
323 321 320 321 322 323 323 321 321 318 318 324 328 323 323 326 331 335 333 329 328 329 330 332 330 330 330 330 330 328 328 329 329 326 325 324 323 322 322 321 321 320 319 320 321 321 321 321 321 321 321 321 322 322 321 321 320 320 320 319 318 317 316 316 315 314 314 314 313 313 313 313 312 312 312 312 312 312 311 311 311 311 311 311 312 312 312 312 312 312 312 312 312 312 312 312 312
321 319 317 320 322 319 318 321 320 316 319 327 327 323 322 325 331 337 336 332 328 327 330 332 330 329 329 329 329 329 329 329 330 328 326 325 324 322 321 321 321 320 320 320 320 320 321 321 321 321 322 322 322 321 321 321 320 320 320 320 319 318 317 316 315 315 314 314 314 313 313 313 313 312 312 312 312 312 312 312 312 312 312 312 312 312 312 312 312 312 312 312 312 313 313 313 312
Wind_Speed
12 11 9 9 11 13 10 7 6 4 6 8 9 9 10 10 4 6 7 7 7 5 8 10 12 11 8 10 12 14 13 10 7 2 3 3 3 5 7 8 10 13 12 12 13 11 12 14 14 14 13 12 12 12 12 12 12 11 11 11 11 12 12 12 12 12 12 12 12 12 13 14 13 13 13 13 13 12 12 11 10 9 7 7 7 7 7 7 8 8 7 7 7 6 5 5 6
10 11 10 10 13 11 6 5 6 6 7 8 9 10 8 4 2 7 8 7 7 5 9 11 11 11 9 11 11 13 15 14 13 8 5 4 6 10 11 10 11 13 12 13 14 10 11 12 12 13 12 12 12 12 13 12 12 11 11 11 11 11 11 11 11 11 11 11 11 12 12 13 13 13 12 12 12 11 11 10 9 8 7 6 6 6 5 7 7 6 6 5 5 4 4 4 5
11 12 12 11 11 9 5 6 7 8 8 8 8 7 5 4 6 9 7 7 8 7 10 10 10 9 5 11 12 11 10 11 13 7 4 7 6 8 11 12 12 14 13 13 12 10 10 10 11 11 12 12 12 12 12 12 12 11 11 11 10 10 10 10 10 9 10 10 10 10 10 11 11 11 11 11 11 10 10 9 9 8 6 5 4 3 3 5 6 5 4 4 3 2 2 4 5
13 12 15 12 8 7 6 6 7 9 8 8 6 2 4 5 9 9 7 7 5 6 9 8 8 11 11 13 10 10 9 9 13 8 4 8 6 8 12 13 14 14 13 13 10 10 10 9 10 11 12 12 11 11 11 12 11 11 10 10 10 9 9 9 9 9 9 9 9 9 9 8 9 10 10 10 10 9 9 8 8 7 5 4 3 2 2 4 5 5 4 3 1 1 2 2 4
13 12 17 13 6 5 6 5 6 9 8 8 6 3 7 7 8 8 6 5 4 4 8 7 7 11 13 11 6 4 5 6 11 10 5 6 9 10 11 12 14 14 14 13 10 10 10 9 10 10 11 11 10 10 10 11 11 11 10 9 9 9 9 9 8 8 8 9 9 8 8 7 7 8 8 8 8 8 8 8 7 5 4 4 3 2 2 3 5 4 4 3 2 2 2 1 1
13 13 16 14 7 6 5 7 8 8 10 11 4 4 7 7 6 7 4 3 5 6 12 11 8 10 9 7 7 5 5 3 5 8 6 6 10 11 11 13 14 14 14 13 10 10 9 9 10 10 10 10 10 10 10 10 11 11 10 9 9 9 9 9 9 9 9 9 9 8 7 7 7 7 7 7 7 7 7 6 5 4 4 4 3 2 2 2 3 4 3 5 4 3 4 2 2
13 10 10 10 6 6 8 9 9 9 7 6 2 8 8 8 7 6 3 3 5 7 12 13 11 12 7 5 6 10 11 8 6 8 9 8 11 13 12 13 14 14 13 12 10 10 10 10 10 10 10 10 10 10 10 10 11 10 10 9 9 9 9 9 9 9 9 9 8 8 7 7 7 6 6 7 6 5 5 5 4 4 4 4 2 2 1 2 2 2 2 4 4 4 5 4 3
17 9 5 7 6 6 8 9 10 10 1 8 8 9 6 6 8 6 4 5 7 10 11 11 13 13 8 7 6 8 13 13 11 12 12 10 11 14 13 12 13 13 13 12 11 10 10 10 10 10 10 10 10 11 11 11 10 10 10 9 9 9 9 9 9 9 8 8 7 7 7 7 6 6 7 7 6 6 6 5 5 5 4 4 1 0 1 2 2 1 1 3 4 5 6 5 4
17 10 5 7 7 7 9 10 9 11 3 9 8 8 5 5 7 6 5 10 11 12 12 8 11 12 9 12 10 7 9 10 12 13 13 12 13 15 15 13 12 11 11 11 9 9 9 9 10 10 10 10 10 10 10 10 10 10 10 9 9 9 9 9 9 8 7 7 6 6 6 7 7 6 7 8 9 8 7 6 5 5 4 4 2 1 1 1 2 1 1 3 5 6 5 4 4
11 8 7 6 7 8 9 9 8 11 6 8 6 8 7 6 6 4 7 14 13 8 9 10 12 13 11 12 9 5 5 6 11 13 12 13 13 15 14 14 12 10 9 9 8 7 8 8 9 9 9 9 9 9 9 9 9 9 9 9 8 8 9 8 7 7 6 6 6 6 6 7 8 8 9 10 10 9 8 7 5 5 4 4 3 1 1 1 1 2 3 3 5 5 4 3 3
7 7 7 6 8 8 8 8 10 8 3 7 4 6 5 5 6 6 10 13 10 5 3 6 11 13 12 10 6 5 6 7 11 12 12 11 12 13 13 12 11 9 9 8 6 6 7 8 8 8 8 8 8 8 9 8 9 9 8 8 8 8 7 7 6 6 6 6 6 6 7 8 9 10 10 10 10 9 9 7 6 5 4 5 4 3 3 3 3 3 3 3 3 3 3 3 3
7 7 7 7 8 7 8 9 5 3 8 6 5 8 7 7 8 10 12 8 5 4 2 3 5 9 11 9 6 7 10 9 10 12 12 13 15 15 14 12 10 9 8 7 6 6 6 7 7 7 7 8 8 9 9 8 8 8 8 7 7 7 7 6 6 6 6 6 6 7 7 9 10 10 10 10 10 9 9 8 7 7 5 4 3 3 3 3 4 3 3 4 3 2 3 3 4
7 6 7 7 7 8 10 7 3 6 5 6 7 9 11 9 10 10 10 8 7 6 6 6 5 7 9 9 6 8 10 9 9 13 15 16 17 16 15 13 10 10 9 7 7 6 6 7 7 7 7 8 9 9 8 8 9 9 8 8 8 7 6 6 6 6 6 6 6 6 7 9 11 11 9 10 10 9 9 9 9 7 6 5 4 3 3 3 3 3 4 4 4 4 4 4 5
7 6 7 7 8 9 6 2 2 3 4 7 6 10 12 7 8 8 9 10 10 6 3 3 5 8 10 8 5 6 9 10 10 12 14 15 15 15 15 12 11 10 9 8 7 6 7 7 7 8 8 8 9 9 9 9 9 9 9 8 7 7 7 7 8 9 8 6 6 7 8 10 11 11 10 10 11 9 9 8 8 7 6 5 4 4 4 3 3 3 4 5 6 5 5 5 7
7 5 6 6 9 8 5 8 4 2 5 7 7 9 8 7 7 8 9 10 10 5 1 5 4 4 7 9 6 7 10 12 11 10 11 13 14 15 13 12 11 9 9 8 6 6 7 8 7 8 8 8 9 10 11 10 10 10 10 9 8 7 8 9 9 11 11 9 9 9 9 9 10 11 10 10 11 10 10 9 8 7 6 5 5 5 5 5 5 5 6 7 7 6 6 7 7
5 6 5 6 10 5 7 8 7 3 6 10 11 9 4 7 7 6 7 8 10 8 5 6 7 7 10 12 11 11 12 12 11 9 10 13 13 13 12 13 11 8 9 7 6 6 6 7 7 7 7 7 8 10 11 10 10 10 10 10 10 10 10 10 10 10 11 10 10 9 9 9 9 9 9 9 9 9 10 9 8 8 8 7 7 6 6 6 7 7 8 8 8 8 8 9 9
5 5 4 6 6 5 8 9 8 3 7 11 11 10 5 4 5 6 7 9 12 12 10 9 11 12 13 14 14 14 11 10 10 10 10 10 10 11 11 11 8 6 8 8 7 7 5 6 7 6 5 6 7 8 8 6 7 7 8 9 9 11 11 11 12 11 9 9 8 7 7 8 8 9 9 7 7 7 10 9 7 8 8 8 8 7 7 7 8 8 9 8 8 9 10 10 9
4 2 4 6 5 7 9 10 9 4 7 9 10 11 6 4 4 4 5 11 13 13 13 12 14 14 14 15 15 14 11 11 11 11 10 8 7 8 9 10 6 4 7 9 10 10 7 6 7 6 5 6 5 7 7 5 6 5 6 7 7 9 9 9 11 10 9 9 9 9 8 7 7 9 9 7 6 6 8 9 7 8 8 8 8 6 6 6 7 8 9 8 7 6 8 9 9
4 2 3 4 5 6 8 8 7 4 6 9 12 12 5 2 3 4 2 11 11 13 13 12 14 13 14 15 15 14 13 12 12 11 12 10 8 8 9 12 10 7 6 8 9 9 8 8 9 9 8 7 5 7 8 6 5 5 6 6 5 6 8 8 9 9 10 10 11 11 9 8 7 7 7 6 6 4 5 8 8 7 7 9 8 7 7 7 7 8 8 8 6 5 6 7 8
4 3 2 1 3 4 7 8 6 8 8 10 11 10 5 4 4 4 2 9 8 10 9 10 13 12 13 13 14 15 14 14 12 12 12 11 10 9 11 14 12 12 13 10 9 9 8 9 10 10 10 9 8 8 7 6 5 6 8 6 5 6 7 8 9 10 11 10 10 11 9 10 10 9 9 8 8 6 6 8 7 6 6 8 7 7 9 8 8 9 8 8 8 6 7 9 9
4 3 1 2 3 3 8 7 4 9 9 10 11 9 7 7 6 3 3 8 7 5 4 9 12 12 13 12 13 14 15 14 13 13 12 12 12 11 13 16 13 11 13 12 11 11 10 10 10 8 9 9 9 8 6 6 6 7 8 7 7 7 8 9 9 11 12 11 11 10 8 9 10 10 10 10 11 9 9 9 8 7 8 7 6 8 8 7 7 9 9 8 7 6 8 10 10
4 4 3 2 1 4 6 3 4 8 9 12 12 9 5 5 6 4 6 7 3 2 5 6 10 10 12 12 13 13 14 14 13 14 14 14 15 13 14 15 12 10 12 11 11 12 12 12 11 9 9 9 9 9 8 8 8 9 9 8 9 9 10 10 9 10 11 11 11 10 8 8 9 9 9 10 11 10 10 9 8 8 9 7 7 8 8 8 8 9 9 7 6 6 7 8 10
4 5 5 3 2 4 3 5 6 6 9 12 11 8 4 5 7 7 9 8 5 4 4 4 7 10 12 13 12 11 12 12 13 14 14 15 14 12 13 13 11 11 12 12 12 12 12 13 12 11 11 10 9 9 9 8 8 9 9 9 9 9 10 10 10 10 10 11 12 11 10 10 9 8 8 9 10 10 9 9 9 9 8 7 7 10 9 9 9 10 10 8 7 8 8 7 8
6 3 5 5 3 5 3 5 7 7 11 12 12 9 5 7 8 7 10 9 5 6 4 3 7 11 12 12 12 11 12 12 13 14 15 14 12 13 14 13 13 13 13 12 11 11 12 13 11 11 11 11 10 9 10 10 9 9 9 9 9 9 9 9 10 10 9 11 12 11 11 10 11 10 9 9 9 8 8 7 8 8 7 7 8 10 9 9 9 9 9 8 9 9 9 8 8
7 4 3 5 3 6 6 7 8 10 11 10 13 10 5 8 9 8 9 7 5 5 4 5 7 10 11 11 11 11 11 12 13 14 14 12 12 14 15 15 15 14 12 11 10 10 12 12 11 12 12 12 11 10 11 10 10 10 10 9 9 9 9 9 10 9 10 11 11 11 11 10 11 11 10 9 9 9 9 8 8 8 7 7 8 9 9 10 10 10 9 8 9 9 8 8 9
4 6 5 2 4 7 8 8 8 10 8 8 14 13 7 8 8 8 7 4 4 5 5 5 6 9 9 9 10 10 10 12 13 13 12 10 12 14 14 13 13 14 12 11 11 10 11 12 13 13 13 12 11 11 11 10 10 10 9 9 9 9 9 9 9 10 10 11 11 11 11 11 11 11 12 11 10 10 10 10 11 10 9 10 9 10 11 11 11 11 10 10 9 10 9 9 10
4 6 9 9 7 6 7 9 9 9 8 8 13 14 9 6 4 4 2 1 3 6 6 3 3 8 9 8 9 10 10 10 10 11 10 11 12 12 12 11 11 12 12 11 10 10 11 12 13 13 12 12 11 10 10 11 11 11 10 10 10 10 10 10 9 10 11 12 13 12 12 12 12 13 13 13 12 12 11 10 11 11 11 12 10 10 12 12 11 12 12 11 11 11 11 11 11
7 5 7 10 9 7 6 8 8 7 8 8 12 15 9 5 7 5 4 3 3 6 6 1 2 7 9 9 8 9 9 6 7 10 11 11 11 12 12 10 11 11 10 9 8 10 11 12 13 13 13 13 12 11 11 11 11 11 11 11 12 11 12 12 12 12 13 14 14 14 15 15 15 15 15 14 13 13 12 12 12 12 13 13 11 10 12 12 11 11 12 12 12 13 13 12 11
10 7 2 8 10 8 5 6 6 6 7 7 8 12 9 9 11 9 7 4 2 6 5 1 1 6 9 8 6 7 6 4 6 10 11 11 12 13 12 9 11 11 9 10 10 11 11 11 13 13 13 14 13 13 12 12 12 12 13 13 13 13 13 14 13 14 14 14 16 16 15 15 16 16 16 15 14 14 14 14 14 14 14 14 14 13 13 12 12 13 13 14 13 14 14 14 13
10 4 3 4 6 6 4 4 7 6 5 3 0 4 8 10 10 10 10 7 3 4 4 4 4 7 7 6 5 5 2 3 7 10 10 12 12 13 12 11 12 12 11 12 13 13 12 11 12 13 14 14 14 14 14 14 13 13 13 13 13 12 13 14 14 14 14 14 15 16 15 15 16 16 16 16 15 14 14 14 15 15 15 15 15 15 15 14 14 15 15 15 15 15 15 15 14
7 2 2 1 2 4 4 5 7 7 4 4 3 3 7 9 10 9 10 11 9 8 7 8 7 9 7 6 6 4 1 3 8 10 11 13 13 13 14 13 13 13 13 13 14 13 13 12 12 13 14 14 14 14 14 14 14 13 13 13 12 11 12 13 13 14 13 14 14 15 16 16 16 17 17 16 15 13 13 14 14 15 15 15 16 15 15 15 16 16 17 17 16 16 16 16 15
3 2 1 0 2 4 4 6 6 5 5 5 3 5 7 9 11 9 8 10 10 10 12 10 8 10 8 7 7 5 4 6 8 10 11 12 13 14 14 14 14 14 13 13 13 13 14 14 14 14 15 15 15 15 14 13 13 13 13 13 13 14 14 14 14 14 14 15 15 15 16 16 16 17 16 16 16 14 13 14 15 15 15 15 17 15 15 16 17 17 17 17 17 17 16 16 15
2 2 1 2 4 5 2 5 7 5 8 4 2 5 7 8 10 8 6 8 10 10 12 12 9 9 9 7 7 6 6 7 8 10 11 12 14 14 14 14 13 13 13 13 13 13 14 14 14 15 15 15 14 13 12 13 13 13 13 13 14 15 16 16 15 15 16 15 15 15 15 15 16 16 16 16 16 15 15 15 15 16 15 15 16 16 16 17 17 18 18 18 18 18 18 17 15
3 1 1 3 5 7 4 5 8 8 7 6 4 6 8 9 10 8 4 8 12 10 10 13 10 9 11 8 7 8 7 7 8 10 11 12 14 14 13 13 12 13 13 13 14 14 14 14 15 15 15 13 12 10 9 9 11 12 12 13 13 13 14 15 16 15 16 16 15 15 15 15 16 15 15 15 15 15 14 14 15 16 16 16 16 17 17 18 18 18 19 19 18 19 20 18 16
5 3 3 5 7 8 7 5 6 7 7 8 8 8 10 11 11 8 6 8 11 10 8 11 10 9 11 9 8 8 8 8 9 11 12 11 13 13 12 12 12 13 13 14 15 15 15 16 16 17 17 16 15 14 13 12 11 10 11 12 12 13 13 14 15 15 15 16 16 15 15 15 15 14 14 14 15 15 14 15 15 16 17 16 16 17 17 18 19 18 19 20 19 19 19 19 20
10 6 4 4 7 6 7 6 4 5 7 9 9 9 12 12 10 10 9 9 10 9 7 8 8 8 9 8 7 8 9 9 10 13 13 11 13 13 12 12 13 13 14 15 15 15 16 16 17 17 18 18 17 17 18 17 15 13 12 12 10 11 14 14 14 14 14 15 15 14 14 14 14 13 13 14 15 15 15 15 15 16 16 16 16 17 17 18 19 18 18 20 20 20 19 20 23
14 7 3 2 6 6 7 7 4 5 6 8 9 10 11 11 11 11 10 10 10 10 9 8 8 6 7 8 9 9 10 10 11 13 12 12 13 12 12 12 13 14 14 15 15 15 16 16 17 17 16 16 16 16 16 17 17 16 15 14 12 11 12 12 13 13 12 14 14 14 14 15 14 14 13 13 14 15 15 15 15 15 15 16 16 16 16 17 18 18 18 19 19 20 19 20 24
10 6 6 4 3 4 7 7 7 5 4 7 10 11 11 10 11 10 10 10 9 9 9 9 9 7 6 8 10 10 9 9 10 11 11 12 13 12 12 12 13 13 13 14 14 14 15 15 16 15 15 15 14 13 13 12 12 13 13 14 15 14 11 10 11 10 10 12 13 14 14 15 14 14 14 13 14 15 15 15 15 15 15 15 16 15 16 17 18 19 19 20 19 19 18 19 23
5 4 6 4 3 5 5 5 8 5 3 6 8 8 9 10 10 9 10 8 7 7 7 8 9 8 8 8 9 9 9 9 9 9 10 12 12 12 12 12 12 12 12 12 12 13 13 14 14 14 14 15 15 15 13 12 11 11 11 11 13 14 12 12 11 9 10 11 11 13 13 14 14 14 14 13 14 15 15 14 15 16 15 15 15 15 17 18 18 19 20 19 19 18 17 18 21
4 4 2 4 5 5 3 5 8 4 4 7 7 7 6 7 9 8 8 8 7 7 6 7 7 7 8 8 8 8 9 9 8 8 9 10 11 11 11 10 10 10 10 11 11 11 12 13 13 13 14 14 14 15 15 15 14 13 12 10 10 12 12 13 14 13 12 12 12 11 12 13 13 13 13 13 13 14 14 14 15 16 16 15 14 15 16 17 18 19 19 18 18 18 18 18 19
3 5 4 4 8 7 5 8 9 4 4 8 8 6 3 5 8 8 7 7 8 9 7 7 7 7 9 8 8 7 8 8 8 8 7 9 10 10 10 10 10 10 9 10 9 9 11 12 12 12 13 13 13 15 15 15 14 13 12 11 10 10 10 10 13 12 10 10 10 10 10 11 12 12 13 13 13 14 14 13 14 15 15 15 15 15 16 16 16 17 17 18 19 19 18 18 18
0 5 6 5 8 9 7 9 8 1 3 9 9 5 3 6 9 8 7 8 8 9 9 9 8 8 9 8 8 7 7 8 7 8 8 9 9 9 9 9 10 10 8 8 8 9 12 11 11 12 11 11 13 15 14 14 14 13 12 11 10 8 7 7 8 9 9 8 9 10 10 9 10 12 12 13 13 14 13 13 14 14 14 14 15 15 14 14 15 15 15 16 17 18 18 18 18
1 5 8 6 5 6 7 9 8 1 3 7 7 2 2 6 7 7 8 8 9 9 9 9 8 8 8 7 8 7 7 8 7 8 9 9 9 9 9 9 10 10 8 8 7 9 12 11 11 12 11 11 13 14 12 12 14 13 12 11 11 11 9 8 8 9 9 10 10 10 11 10 11 11 12 12 13 13 12 13 13 13 13 13 14 14 13 14 14 13 14 15 15 15 17 16 17
1 4 6 6 4 4 6 7 6 2 3 5 5 4 3 3 4 6 8 8 8 9 9 10 9 8 8 7 8 8 8 8 7 8 9 8 9 9 9 9 10 9 9 8 8 10 12 10 10 10 11 11 12 12 12 12 12 12 12 13 13 13 13 11 11 10 9 10 12 11 11 13 12 12 12 12 12 13 12 12 13 12 12 13 13 13 12 13 13 13 14 14 13 14 15 14 15
1 3 4 3 4 4 4 5 3 1 1 2 3 5 3 2 2 4 8 9 8 10 10 10 9 9 8 7 7 7 8 8 7 8 8 8 9 9 9 10 10 9 9 8 9 11 10 7 8 10 11 10 9 10 10 11 11 11 12 12 11 12 12 11 11 12 10 9 12 12 10 11 11 11 12 11 11 12 11 12 12 12 12 12 12 12 12 12 12 13 13 12 13 14 13 13 13
3 5 5 1 3 3 3 4 2 1 1 1 4 5 2 0 1 3 7 9 10 9 9 10 11 10 9 9 9 7 7 8 8 9 9 9 9 10 10 11 10 10 10 9 9 10 9 6 7 8 9 9 8 8 9 10 10 10 12 12 11 11 12 11 11 11 11 10 11 11 10 10 10 10 11 10 11 11 11 11 12 12 12 12 12 12 11 12 11 12 13 12 13 13 13 12 12
3 5 3 2 3 3 2 3 3 2 1 4 8 9 5 1 2 4 5 7 9 9 9 10 12 11 11 10 10 9 8 7 8 10 10 10 10 10 11 11 11 11 10 9 9 10 8 6 6 7 7 7 7 7 8 9 10 11 12 12 12 12 12 12 11 10 11 11 11 11 10 10 11 10 10 10 11 11 11 11 11 11 12 12 12 11 11 11 11 12 12 12 13 13 13 12 12
3 1 2 2 2 2 2 2 1 1 1 3 8 10 7 2 1 6 9 10 10 11 11 12 13 13 12 10 10 11 10 8 9 11 11 11 11 11 12 12 11 11 10 9 9 9 8 6 5 5 6 6 7 6 6 7 9 10 11 12 13 13 13 12 12 11 11 11 11 11 11 11 11 11 11 11 11 11 11 11 11 10 11 12 11 11 11 10 12 14 13 12 13 14 13 13 14
1 5 3 3 1 2 2 2 1 3 1 2 8 9 3 1 1 6 11 12 10 11 12 13 15 15 14 12 11 10 8 7 8 10 11 10 11 11 12 12 12 11 11 9 8 8 7 5 4 4 6 6 4 5 5 6 8 8 9 11 12 12 13 12 11 11 11 10 10 11 11 11 11 11 11 11 12 11 11 11 11 10 11 12 11 12 12 10 12 15 15 13 14 15 14 13 15
4 5 1 3 1 2 2 1 2 1 2 3 6 9 3 0 3 3 6 9 8 10 12 13 14 15 15 13 12 10 9 8 8 9 10 10 11 12 12 12 12 11 11 10 9 7 6 6 3 2 5 4 2 3 4 5 6 7 8 9 10 11 11 10 11 11 9 9 10 10 10 10 10 11 11 11 11 11 11 12 11 10 11 12 11 12 13 11 12 15 15 14 15 15 14 13 15
2 2 1 3 1 2 4 2 0 2 3 5 3 6 3 2 3 3 7 5 7 11 13 11 11 14 13 12 11 10 10 9 7 9 11 11 13 14 13 12 11 12 11 10 9 8 6 6 5 3 3 3 2 2 2 3 4 5 5 6 8 10 9 9 10 10 8 8 9 9 9 9 9 11 10 10 11 11 11 12 12 11 11 10 10 11 12 11 11 13 13 14 15 14 14 15 16
0 1 1 3 1 1 2 1 2 3 3 3 1 3 3 2 3 3 4 4 8 11 14 13 13 15 12 11 11 10 10 9 8 8 11 13 14 14 14 12 11 12 11 9 9 9 6 6 7 5 2 2 1 0 0 0 3 4 4 4 6 8 7 7 8 8 7 6 7 8 8 9 10 11 10 10 12 11 9 11 11 10 9 8 9 8 9 10 10 10 12 13 14 13 13 14 15
1 1 2 4 3 1 0 1 4 4 2 1 1 4 4 2 1 4 3 4 7 9 11 12 15 16 13 10 10 9 9 9 6 9 12 13 14 14 14 11 12 14 13 11 10 9 7 6 6 6 4 3 1 2 1 1 4 4 3 2 4 6 7 7 7 8 10 8 6 7 7 8 10 10 10 9 12 12 9 9 11 11 9 8 8 7 7 9 9 10 11 12 13 14 14 15 17
3 0 2 4 3 1 2 0 2 2 2 1 5 6 3 1 1 6 6 4 7 8 9 10 13 15 13 12 11 10 10 9 7 13 13 14 14 14 14 12 11 14 12 12 11 10 10 8 6 6 6 3 1 1 1 2 3 1 3 2 4 5 7 9 9 10 12 11 8 8 8 9 10 10 10 9 12 13 10 10 13 14 13 12 12 12 12 12 11 11 12 12 14 15 16 17 18
4 2 3 3 0 1 1 1 0 1 3 2 6 6 2 1 2 4 5 5 6 8 10 10 11 12 11 12 14 12 11 8 7 10 10 13 13 12 14 13 11 11 9 12 14 9 10 10 7 5 3 1 0 1 3 3 3 3 3 2 3 4 6 8 9 10 12 13 11 11 10 10 10 10 11 11 12 13 12 13 15 15 15 16 16 16 16 17 16 13 13 14 17 17 18 18 17
5 4 3 3 1 3 2 2 1 2 4 2 2 2 1 1 2 2 5 5 6 7 9 9 10 11 8 9 11 10 9 7 7 9 8 12 14 12 14 13 11 12 8 10 16 12 11 13 9 6 3 2 2 2 4 5 5 5 4 3 3 4 5 5 6 8 10 11 11 12 11 10 11 11 10 11 12 13 13 14 15 14 14 15 17 18 19 19 17 15 16 17 18 18 18 18 18
4 3 2 2 1 3 1 1 0 3 4 3 1 1 3 2 1 3 7 4 5 6 6 7 7 9 8 8 9 8 8 7 7 7 6 11 16 13 13 11 11 13 10 8 15 14 13 14 10 6 5 4 4 4 5 6 6 4 3 4 2 3 4 4 4 6 7 8 10 12 12 12 13 12 10 11 13 13 14 15 16 16 16 16 18 19 19 19 19 18 19 20 19 19 20 20 19
4 3 2 3 2 1 2 1 1 3 2 1 1 1 3 2 4 3 7 7 3 4 6 6 6 8 8 7 7 6 7 7 6 6 5 8 15 13 13 11 12 11 11 10 13 13 11 13 11 8 7 6 5 5 6 7 5 4 2 2 3 2 2 4 6 5 5 7 10 11 13 15 14 13 12 13 14 15 16 18 18 19 20 19 19 20 21 22 23 23 22 22 21 20 20 21 20
Wind_Direction
231 243 252 269 273 269 265 249 251 235 231 251 251 254 249 244 209 106 65 54 58 31 44 54 47 50 79 91 84 68 44 34 35 41 91 118 128 63 61 63 79 94 90 88 83 85 91 90 88 87 85 83 83 79 74 72 68 65 63 59 58 55 54 55 54 53 52 51 50 49 48 51 54 52 52 54 55 56 54 54 56 59 58 55 57 57 56 53 48 57 64 59 53 45 57 64 61
237 252 255 261 261 257 263 244 250 248 233 245 244 253 249 245 343 79 75 65 72 70 73 68 62 63 95 100 79 66 52 47 53 65 77 87 83 48 54 71 80 88 84 84 84 89 91 88 91 92 91 87 86 82 77 73 68 64 60 56 55 53 51 51 51 50 49 48 48 47 48 50 52 51 51 52 54 55 54 52 50 51 53 51 56 54 53 60 54 63 78 77 74 55 64 91 84
237 257 254 242 243 247 258 249 246 255 244 247 243 252 232 154 58 67 83 74 79 86 87 80 65 41 59 71 57 65 56 44 48 65 69 39 49 39 58 79 80 82 83 85 85 93 91 83 91 93 94 92 89 86 81 77 71 65 59 56 53 51 49 48 49 47 46 47 47 46 48 49 49 50 49 46 46 46 48 52 48 44 43 46 61 60 57 69 61 53 69 73 83 69 62 111 106
231 249 254 241 231 231 242 248 239 251 249 253 255 14 24 89 82 76 82 75 80 94 86 86 70 39 51 60 52 69 56 47 42 42 71 34 50 55 57 71 75 83 82 82 86 92 90 85 91 90 93 97 95 92 89 85 78 70 63 59 56 54 51 50 48 47 48 48 49 47 46 47 46 49 47 43 40 37 39 46 49 43 39 40 35 26 37 60 65 42 22 38 46 3 24 122 119
237 250 252 250 246 230 232 242 236 249 250 251 261 33 37 57 80 71 63 76 81 92 91 100 93 57 54 46 25 55 33 59 49 40 84 55 62 65 64 77 76 85 85 81 87 89 87 88 88 88 98 101 98 97 95 93 86 78 70 65 64 62 59 56 54 52 54 55 54 52 49 44 44 47 47 44 40 37 32 33 42 35 22 26 355 338 19 35 76 59 354 340 322 327 340 235 164
237 248 245 245 258 268 251 242 241 247 257 258 252 66 67 71 74 74 57 75 72 69 81 79 89 84 78 66 50 50 21 64 64 45 73 69 71 74 74 83 81 84 87 85 87 87 84 81 83 90 99 102 103 102 98 97 93 87 78 73 71 70 67 61 57 55 56 59 58 56 54 48 45 47 48 48 44 40 33 27 29 19 5 11 350 322 350 19 84 91 4 332 320 316 320 292 246
224 231 233 235 246 265 258 253 254 244 266 293 58 72 67 70 71 92 90 74 67 54 78 91 106 98 84 103 78 51 50 72 89 65 76 88 85 82 75 76 77 76 79 82 79 80 80 78 83 88 93 97 101 101 101 97 93 92 87 79 73 69 64 57 53 51 51 54 57 55 54 50 45 42 42 44 40 37 36 27 14 14 8 1 357 315 340 36 66 105 45 345 326 318 313 297 269
221 227 223 225 227 232 242 250 255 253 15 56 71 72 62 76 78 79 64 50 54 40 54 87 98 85 66 86 90 59 63 75 90 87 88 96 85 80 80 78 74 70 70 73 71 72 76 79 86 87 89 91 92 92 93 92 90 89 85 77 67 62 56 53 49 45 44 46 49 47 46 46 41 36 36 33 26 28 33 29 19 17 11 5 23 357 360 64 81 124 54 336 304 312 307 290 289
221 226 227 227 236 232 235 244 245 251 207 98 97 101 98 90 80 78 69 43 43 43 45 73 89 89 92 84 85 74 63 76 92 91 91 89 77 74 79 82 79 75 73 74 75 75 76 77 83 87 85 82 83 83 81 79 80 79 76 71 63 59 55 51 48 46 45 45 46 44 46 47 43 37 35 33 28 28 29 25 26 25 20 22 52 99 69 98 109 181 308 306 291 301 299 285 298
218 215 232 233 236 244 243 248 243 246 209 117 108 127 138 123 108 119 89 56 48 51 58 80 92 99 106 85 80 76 66 93 90 83 85 80 72 73 77 83 85 84 83 84 85 82 83 82 81 82 78 76 74 72 73 70 69 68 66 64 59 56 55 51 49 51 52 53 52 47 48 48 44 41 37 35 34 34 33 26 29 36 32 35 43 49 14 341 315 299 304 299 296 301 294 282 299
215 209 229 244 237 244 247 247 250 260 102 102 100 103 115 116 116 100 80 69 65 75 94 85 89 100 99 86 86 97 97 90 80 80 84 83 82 83 82 82 86 89 88 88 92 90 87 86 80 76 74 72 71 65 62 61 61 59 56 56 54 52 51 49 49 50 52 51 50 45 43 44 41 40 38 35 34 35 36 34 36 34 32 45 46 12 358 342 326 324 318 301 299 297 283 274 286
221 210 208 233 244 242 248 251 252 46 74 85 73 51 16 38 71 85 85 87 80 70 98 100 107 111 99 93 106 112 98 77 78 89 93 94 94 94 92 90 89 92 97 100 103 100 91 85 77 74 77 72 68 61 54 53 52 51 50 48 47 48 47 46 45 41 38 36 40 42 39 41 40 36 34 32 32 33 34 37 37 31 30 44 49 21 6 349 339 338 322 311 306 278 273 280 285
230 228 225 227 248 252 255 255 123 94 79 52 53 19 1 39 63 81 96 95 82 61 60 87 117 101 93 95 105 111 91 79 89 96 98 96 95 96 93 92 94 96 103 110 107 100 96 93 89 83 78 71 67 62 55 48 45 45 45 45 46 48 48 49 48 42 36 35 39 44 47 45 41 35 32 32 29 31 33 34 31 31 36 30 29 20 358 353 344 325 311 303 301 282 273 283 285
229 234 246 248 259 257 281 329 130 160 80 46 42 14 10 61 88 87 94 88 83 82 50 63 100 95 107 113 109 108 95 99 103 98 97 92 94 94 88 86 89 93 98 110 116 107 104 100 97 94 81 71 69 65 58 48 44 44 45 48 50 53 55 55 52 46 40 42 44 44 51 45 37 33 33 33 29 31 29 28 26 25 33 25 18 9 350 346 327 306 294 283 285 283 284 287 287
232 250 246 265 264 258 3 27 1 328 70 46 43 32 24 65 88 93 87 90 92 125 162 7 26 80 115 116 111 107 110 115 110 103 96 89 91 90 90 91 87 88 93 104 108 98 102 98 88 87 77 69 68 65 60 53 50 48 49 50 51 54 54 54 52 50 46 46 49 47 47 37 30 31 29 28 26 28 21 15 17 14 15 13 8 1 350 339 327 308 289 279 277 277 282 282 284
231 267 259 258 263 284 13 13 354 354 52 40 40 27 16 45 51 88 93 108 103 116 119 40 39 64 82 95 107 111 116 116 110 113 103 95 94 92 94 95 92 93 99 98 83 81 90 83 81 86 77 76 74 68 63 56 56 50 48 47 48 52 49 51 48 48 48 47 46 41 39 29 27 32 27 22 18 19 17 9 5 6 7 3 359 353 352 347 339 326 307 291 280 277 278 279 283
231 257 285 276 285 6 7 2 1 15 54 46 41 17 23 56 39 82 98 108 99 96 95 74 68 73 82 98 112 117 121 120 119 122 112 105 103 99 89 85 81 72 92 89 74 80 75 64 76 89 86 88 87 84 76 63 73 62 52 52 45 47 45 45 41 36 36 43 40 25 29 26 24 28 21 18 15 17 20 18 9 11 16 8 360 355 358 355 347 342 332 314 294 286 281 282 288
266 294 360 326 357 18 357 18 32 56 65 60 58 41 53 88 37 35 90 96 97 98 89 85 83 82 96 110 119 125 131 129 128 127 119 115 110 107 102 110 111 59 63 62 69 82 85 96 91 86 93 98 98 105 99 81 89 80 68 67 46 42 43 44 43 35 30 42 41 28 30 25 22 24 20 17 20 26 16 14 18 20 24 15 6 2 2 355 348 344 341 336 323 305 291 290 298
329 351 14 347 21 4 356 40 72 92 86 80 77 73 70 66 33 321 73 97 103 104 97 100 98 100 109 114 122 125 123 118 117 117 111 111 119 122 124 133 135 138 106 65 77 84 81 94 77 72 88 96 87 88 87 73 77 66 61 65 45 43 47 53 54 45 42 46 41 36 32 23 21 21 25 25 15 23 6 6 14 12 12 10 5 358 351 342 339 334 331 333 329 325 312 303 299
341 344 323 80 53 1 16 43 77 101 104 93 86 88 77 59 55 323 62 95 94 100 110 117 111 114 115 112 115 113 108 101 100 103 102 105 110 109 113 120 125 142 136 114 108 94 83 89 72 64 71 75 71 77 78 58 64 62 63 71 64 61 58 59 55 47 47 46 40 37 32 25 25 22 24 22 11 14 18 14 7 357 359 0 355 355 350 336 335 337 328 321 322 316 303 304 299
342 358 330 110 103 50 42 39 76 104 105 94 90 85 71 67 57 360 115 92 65 56 71 109 113 116 115 111 108 105 102 97 96 97 94 91 86 78 85 99 105 115 114 109 108 90 81 89 83 70 65 65 62 78 91 64 71 74 70 74 69 68 63 61 59 50 46 45 40 35 31 25 22 25 23 18 19 22 21 19 7 358 4 359 349 353 352 340 343 344 328 318 328 314 291 301 307
8 40 56 48 100 88 84 123 128 116 106 97 100 93 74 81 63 56 108 100 86 21 9 72 102 109 109 106 104 102 99 94 89 85 78 75 76 73 72 83 91 89 84 81 80 70 64 70 76 75 70 68 53 62 82 69 69 70 63 60 56 58 56 55 58 51 46 43 39 35 34 27 18 21 22 17 24 27 21 18 11 8 8 360 351 357 357 348 352 350 334 319 328 326 306 305 308
51 37 27 341 360 70 109 130 113 120 105 94 99 103 108 104 81 73 89 93 116 107 32 45 86 95 99 101 101 96 91 87 82 77 73 70 68 70 68 71 74 72 69 66 64 59 56 57 62 66 63 64 56 55 68 64 62 64 62 59 51 52 52 48 45 42 44 42 37 35 31 29 24 19 20 16 19 24 19 13 11 16 14 358 344 353 356 347 347 347 340 330 330 328 321 314 312
81 37 328 315 41 91 141 111 105 108 96 96 104 116 130 110 95 83 81 73 71 83 78 64 75 88 94 94 93 88 86 84 82 78 75 75 69 65 65 64 61 59 58 57 58 58 58 56 55 61 55 55 58 57 62 60 56 58 61 58 50 47 47 46 43 35 38 42 37 34 28 25 27 21 21 21 16 18 16 9 9 16 18 4 347 352 354 345 343 342 338 332 332 330 320 317 322
86 129 255 310 52 120 127 104 102 94 89 101 109 113 116 103 98 81 72 61 49 60 67 61 71 90 91 87 87 85 85 84 84 81 77 83 82 71 65 63 61 60 61 59 58 51 51 54 52 54 51 51 55 59 62 61 57 54 54 52 49 44 41 45 45 37 36 37 34 33 28 24 27 20 15 22 20 15 13 9 8 12 14 6 358 357 351 346 341 337 338 331 330 336 331 322 325
72 94 123 170 141 120 108 101 94 87 94 117 112 112 117 111 94 64 44 39 65 65 57 62 85 97 88 84 85 80 81 80 80 81 75 77 78 71 66 63 61 62 59 60 64 54 43 45 49 49 49 52 57 59 61 61 60 58 54 50 49 41 38 44 40 35 36 32 28 28 25 22 26 19 10 15 19 16 14 13 10 11 13 5 3 1 352 347 341 337 341 339 336 338 332 323 323
54 68 117 144 134 107 100 100 98 98 114 137 122 120 149 162 110 69 14 337 106 92 73 50 79 99 96 90 85 75 74 72 74 81 76 67 67 69 68 64 63 63 57 54 59 61 54 48 51 53 52 55 58 60 60 59 58 58 54 48 47 39 39 45 38 36 38 34 30 27 26 25 26 21 12 11 13 13 14 16 14 9 8 2 360 1 354 347 345 344 343 342 341 337 330 324 321
43 51 122 123 104 104 109 101 111 116 119 137 121 117 136 137 104 125 177 197 161 114 99 3 31 98 98 87 79 69 68 61 65 77 75 68 64 65 64 62 69 70 65 64 62 65 65 58 56 55 56 57 57 56 55 56 55 54 52 45 42 38 39 44 40 40 40 40 39 34 30 28 29 23 16 16 16 14 15 18 18 12 8 2 0 1 355 349 349 350 347 345 345 341 336 333 332
51 17 48 117 109 107 110 116 130 126 124 137 119 113 111 95 107 135 156 165 162 112 107 218 128 99 87 82 78 69 57 24 54 73 76 75 70 72 72 68 80 86 80 75 72 69 67 63 60 57 57 57 56 56 53 54 53 52 51 46 44 42 42 43 41 41 41 41 40 38 34 30 31 26 20 23 22 19 18 19 17 13 9 5 6 5 360 356 358 358 353 351 350 344 338 339 343
79 12 308 129 115 99 111 140 135 128 135 169 273 111 104 99 117 133 132 133 142 118 132 198 159 114 99 97 89 75 29 359 66 78 79 80 74 76 80 74 80 88 83 74 70 68 67 65 64 60 59 58 56 55 54 53 53 53 52 49 47 48 49 47 45 44 41 41 39 37 36 31 30 28 25 27 27 24 22 23 19 14 11 9 10 9 7 6 4 3 359 355 352 348 341 339 340
97 69 336 48 68 108 163 167 143 138 161 230 246 117 113 120 131 138 137 142 149 146 167 192 149 120 122 113 99 91 60 53 78 81 79 82 79 75 75 72 72 76 76 75 71 69 67 65 64 60 57 57 54 53 52 51 52 52 52 50 45 45 51 50 49 47 42 40 38 34 32 30 29 28 26 26 26 26 26 25 19 15 16 15 15 13 13 13 9 6 3 359 355 351 345 342 342
115 85 45 135 114 133 171 182 177 155 155 218 225 114 122 130 132 142 147 149 150 151 165 170 135 124 127 119 119 121 112 103 94 90 85 83 83 77 73 70 68 70 72 75 75 71 69 63 60 58 54 52 51 49 48 48 51 52 51 50 44 42 45 46 48 45 40 37 34 30 28 28 27 27 25 23 22 23 27 25 17 15 17 17 17 17 17 17 12 7 5 1 355 349 344 342 345
129 101 101 110 137 137 153 224 217 175 142 167 191 123 129 131 136 145 153 161 161 158 151 137 130 135 130 129 133 127 126 121 105 95 92 87 82 75 73 74 72 73 73 74 75 71 67 61 54 53 50 46 46 47 49 48 49 51 49 48 48 47 43 39 42 42 37 33 29 26 25 25 25 26 24 23 23 23 25 23 16 17 17 17 18 17 17 16 12 6 4 3 356 350 342 338 348
111 125 160 119 167 157 150 224 205 179 158 148 151 128 124 134 140 145 170 171 153 145 135 127 140 146 129 137 140 131 130 119 108 101 99 97 90 80 76 78 75 75 74 71 71 67 63 57 50 45 40 36 34 31 43 55 54 50 46 45 46 49 47 39 37 38 34 29 26 23 22 23 23 23 23 24 24 21 23 21 16 16 16 18 18 16 15 13 11 8 4 3 360 356 345 341 360
128 187 197 154 176 169 148 161 166 176 166 140 144 130 129 141 141 148 173 164 136 131 137 128 132 124 117 132 135 129 125 114 115 109 100 93 88 85 81 77 73 72 71 70 68 65 62 56 49 43 35 32 30 23 25 39 51 51 47 46 43 41 45 45 38 33 32 28 24 23 22 21 20 20 21 24 24 21 19 19 16 15 16 16 16 14 13 10 9 7 6 3 1 0 351 352 7
140 184 213 153 136 132 132 131 132 177 160 139 145 138 140 149 148 154 159 148 133 135 144 126 119 112 114 130 131 125 121 116 116 108 103 98 90 86 83 78 75 72 69 68 66 63 60 55 51 45 38 35 34 29 24 25 32 37 40 36 39 42 38 43 42 32 31 31 26 25 22 20 21 21 22 23 24 22 17 17 16 15 15 13 11 12 11 10 5 2 5 5 2 360 356 2 6
145 174 184 64 79 109 131 137 156 197 164 138 147 144 144 151 151 155 154 149 145 148 152 136 126 124 122 129 125 120 117 112 108 105 104 106 101 93 87 82 78 75 70 68 65 62 58 55 53 48 45 41 39 39 34 29 27 26 28 20 27 52 41 34 42 32 30 34 28 26 23 18 20 22 22 24 26 24 16 13 13 13 15 11 9 11 10 10 4 1 9 8 3 358 357 5 5
141 148 120 64 38 129 133 141 161 194 183 140 149 147 143 151 152 156 158 156 154 153 151 139 135 137 133 128 123 120 117 111 108 107 106 104 100 95 91 88 86 81 77 73 69 67 64 59 57 51 49 46 42 46 44 43 37 30 33 23 23 43 40 25 37 35 33 37 30 26 22 17 18 19 20 22 26 25 16 11 10 10 14 11 9 11 10 10 4 6 16 12 4 360 359 5 4
117 103 106 99 101 128 129 156 155 171 195 144 146 145 143 151 152 160 162 158 156 151 147 144 142 137 133 129 125 124 120 115 113 106 101 97 96 98 95 92 93 91 86 81 74 74 72 66 63 57 55 51 46 47 43 40 41 37 43 39 33 37 25 12 25 41 39 37 35 29 21 16 17 17 17 18 20 21 17 14 11 11 15 11 8 11 11 9 4 10 20 11 2 4 2 2 4
100 100 133 120 122 134 146 174 167 179 175 145 146 140 135 148 152 163 168 160 150 148 158 151 138 134 137 135 127 128 123 118 115 107 100 100 102 105 105 105 106 101 92 89 86 86 84 76 70 61 58 57 53 52 47 42 39 38 40 44 53 51 33 14 18 37 37 27 29 27 23 19 17 16 15 15 17 17 15 15 13 12 15 9 4 12 14 8 3 8 17 10 4 9 4 357 5
107 131 176 153 152 175 182 163 164 181 155 151 156 134 132 179 166 164 170 172 156 153 169 156 146 148 140 133 132 134 130 123 119 116 112 110 111 112 117 122 115 102 93 97 101 97 92 85 79 73 65 60 60 56 52 49 44 42 40 38 47 57 57 37 21 27 31 24 25 20 21 25 19 16 14 12 15 16 12 13 13 11 12 7 4 17 18 8 4 7 13 12 9 11 3 356 4
174 154 181 172 157 175 179 143 129 129 177 167 168 143 162 188 174 166 167 178 168 164 172 163 160 158 145 142 144 143 138 134 130 126 121 115 117 119 122 122 112 106 101 101 103 97 89 80 74 74 66 57 63 62 54 51 47 42 42 38 31 31 55 68 40 23 13 17 34 23 16 26 19 13 14 10 10 14 11 10 11 10 11 5 3 17 19 7 6 5 10 14 11 9 4 359 2
196 186 189 178 146 154 161 125 104 127 201 188 196 170 148 174 174 174 175 179 174 173 176 172 170 162 160 155 144 149 149 144 142 132 127 126 126 127 125 119 112 112 111 107 106 99 92 84 79 76 64 49 54 61 58 57 54 45 41 37 24 14 21 41 40 30 11 7 30 28 10 17 18 11 15 12 7 11 10 6 7 7 10 4 0 13 13 5 5 0 8 16 11 10 8 4 3
142 199 197 181 152 146 161 137 118 169 189 204 199 124 104 179 190 182 183 186 179 182 185 180 179 169 168 160 147 159 157 152 153 132 127 134 134 135 132 122 117 119 123 121 109 95 92 91 93 91 82 64 51 53 51 53 57 51 48 40 26 17 13 14 19 25 22 10 21 25 9 9 14 11 12 11 5 8 8 4 4 4 7 4 359 7 5 2 3 357 6 14 6 10 11 7 8
146 204 226 196 155 165 178 151 142 240 162 192 178 138 138 208 229 200 189 194 192 193 193 186 186 177 169 164 159 162 158 161 157 133 133 142 139 138 132 124 125 126 122 120 112 105 104 101 96 93 90 83 66 58 51 46 45 46 49 42 32 24 11 13 18 15 20 21 19 21 13 5 8 9 7 5 1 2 3 1 2 1 5 3 356 1 0 359 1 355 1 5 360 8 8 3 9
120 197 219 180 159 187 188 149 153 323 86 234 233 217 231 147 195 204 189 197 198 193 196 191 188 183 173 166 162 161 168 173 155 135 139 143 140 136 129 125 125 122 119 127 129 118 115 108 94 88 86 85 75 62 55 49 39 39 44 33 29 29 11 13 25 15 15 27 23 17 14 7 7 6 3 2 358 358 1 1 1 1 2 0 355 357 356 357 4 356 356 359 358 4 358 353 2
134 208 207 185 198 199 171 128 123 71 44 225 209 206 217 187 178 188 192 210 197 184 193 189 181 181 176 168 163 166 180 184 153 138 141 141 140 137 131 127 124 125 131 142 139 125 125 119 95 88 88 91 85 65 54 50 39 36 41 31 25 28 18 14 22 21 16 20 21 16 13 11 9 6 2 3 1 0 3 1 360 1 360 358 355 357 354 357 3 355 352 356 358 357 348 349 359
212 205 4 248 214 205 180 94 104 237 260 189 177 191 213 229 203 189 198 217 202 181 185 183 179 182 176 165 168 173 180 184 158 144 144 142 144 144 136 131 131 138 146 153 145 136 139 132 116 114 99 88 86 71 54 54 46 35 37 33 26 26 25 19 18 24 21 14 14 14 13 12 8 5 4 5 4 3 5 2 359 360 358 354 355 357 353 355 0 355 352 354 356 351 343 351 354
141 65 1 287 237 237 214 95 252 247 257 171 163 164 184 337 94 169 189 210 204 178 175 180 181 180 172 167 176 175 173 186 169 148 143 144 153 153 141 142 147 151 156 157 150 145 143 139 142 131 104 91 86 75 55 54 55 43 36 33 28 26 28 25 19 20 20 12 9 11 13 11 6 4 6 7 3 1 4 360 355 358 359 353 355 357 352 355 2 358 353 352 353 345 338 349 346
41 76 295 289 331 287 318 102 251 335 355 272 180 155 160 315 97 142 201 203 185 161 163 177 177 168 167 170 172 165 167 195 186 153 149 152 158 154 151 159 159 158 166 159 153 158 150 145 163 134 105 105 91 74 55 48 56 50 39 33 32 30 28 32 28 17 13 9 6 10 11 8 5 3 3 3 359 358 1 356 352 359 1 355 356 356 353 359 1 357 354 351 349 341 335 344 340
19 124 225 293 295 304 341 22 263 291 285 275 214 158 195 215 137 217 240 190 144 137 145 165 166 158 164 163 160 161 170 199 201 160 151 150 151 151 159 171 165 160 169 162 160 175 167 157 175 174 134 128 103 72 50 43 65 57 40 40 38 27 22 36 37 19 8 6 2 6 7 4 5 359 355 357 355 352 354 355 354 356 356 353 354 354 354 356 353 355 355 347 342 339 336 340 336
348 208 235 295 262 212 314 26 187 243 262 265 235 128 132 164 165 231 244 156 134 133 143 157 153 152 158 151 158 167 169 200 210 156 138 140 147 150 157 177 175 159 165 174 177 180 178 184 185 179 176 150 129 89 42 89 90 67 32 42 45 25 15 31 41 23 8 11 8 3 2 4 2 353 349 355 351 343 345 352 349 343 340 341 343 345 349 346 338 344 350 340 334 333 330 330 327
139 175 243 280 275 208 304 190 214 239 261 267 74 81 84 116 218 294 292 167 147 136 148 154 149 154 157 149 164 169 168 204 195 132 131 142 149 152 157 186 188 162 165 184 183 176 179 204 208 196 201 184 178 229 217 123 88 67 355 24 49 21 10 13 33 31 8 360 10 8 6 8 358 344 343 352 347 338 337 347 340 328 322 325 327 325 330 330 323 328 336 330 325 324 321 321 316
166 74 259 263 276 327 46 315 272 292 299 7 89 105 106 111 245 296 295 209 158 144 153 155 154 160 157 154 167 170 174 199 167 136 144 147 150 155 159 191 197 165 170 182 176 180 179 195 237 224 204 191 168 271 327 28 53 25 309 24 46 22 18 7 12 27 2 344 360 18 15 7 354 340 337 342 341 333 328 339 339 330 328 330 330 328 326 325 317 315 321 320 316 315 310 308 306
223 282 258 248 287 51 13 255 294 298 300 18 102 130 139 124 196 249 257 212 173 162 158 156 157 157 157 160 165 169 171 176 156 148 151 144 149 155 161 191 194 160 184 185 170 187 180 179 233 238 198 213 181 282 306 329 331 309 309 16 33 23 30 9 2 15 358 344 354 5 3 357 347 338 333 332 332 329 329 336 335 331 333 333 331 328 323 318 311 306 310 309 306 303 295 295 301
236 249 248 272 176 144 213 239 209 278 305 5 94 115 105 199 221 261 257 207 178 178 162 155 158 156 163 158 152 160 160 157 167 171 159 145 150 156 164 194 192 157 186 185 164 184 188 178 213 225 191 252 245 258 291 298 302 313 333 357 41 36 22 3 355 359 348 342 349 349 347 346 335 324 323 328 327 324 327 327 322 322 325 322 319 315 312 310 306 303 306 305 303 299 292 296 304
241 238 224 281 143 123 254 278 255 291 315 8 12 75 102 151 99 8 305 254 175 180 157 146 156 153 153 147 149 166 161 160 173 174 177 155 152 161 165 191 209 173 169 180 169 183 187 179 201 208 189 230 240 244 264 266 267 271 311 336 10 27 2 343 340 344 337 339 345 344 343 337 323 313 313 320 320 319 321 320 319 321 320 315 314 312 315 319 315 310 310 308 306 301 298 302 304
311 306 335 354 23 32 317 291 242 281 299 90 226 167 110 105 114 122 281 279 182 171 147 139 153 148 148 151 154 159 151 153 155 161 206 169 154 167 165 180 226 198 170 192 188 183 186 186 194 193 189 218 231 239 256 263 268 257 244 293 305 307 340 333 325 328 337 341 344 346 340 324 313 317 322 320 322 326 328 327 326 326 322 319 317 316 318 319 314 310 310 309 309 312 316 318 317